JAF1BC FACT-FAPE

Flight info

Callsign JAF1BC
Flight time 0h 56m
Altitude 35000
Route OKTED1C OKTED UQ12 XUGOL UQ56 OKSET DCT PEV
Aircraft B738/M-SDE2E3FGHIRWXY/LB1

Departure

Time 2026-04-16 09:17
Airport Cape Town International Airport (FACT)

Arrival

Time 2026-04-16 10:13
Airport Chief Dawid Stuurman International Airport (FAPE)
Time Latitude Longitude Altitude Speed Heading
2026-04-16 09:01 -33.96983 18.59840 161 ft 0 kts 254°
2026-04-16 09:03 -33.96979 18.59856 166 ft 4 kts 258°
2026-04-16 09:03 -33.96976 18.59888 163 ft 4 kts 275°
2026-04-16 09:04 -33.96983 18.59917 163 ft 4 kts 312°
2026-04-16 09:04 -33.96997 18.59929 163 ft 1 kts 347°
2026-04-16 09:04 -33.97000 18.59930 163 ft 0 kts 347°
2026-04-16 09:10 -33.96996 18.59928 163 ft 2 kts 347°
2026-04-16 09:10 -33.96972 18.59922 163 ft 5 kts 347°
2026-04-16 09:10 -33.96925 18.59908 163 ft 8 kts 345°
2026-04-16 09:11 -33.96863 18.59887 163 ft 10 kts 344°
2026-04-16 09:11 -33.96799 18.59866 163 ft 9 kts 344°
2026-04-16 09:11 -33.96737 18.59845 163 ft 9 kts 344°
2026-04-16 09:11 -33.96677 18.59825 163 ft 9 kts 344°
2026-04-16 09:12 -33.96618 18.59807 163 ft 9 kts 347°
2026-04-16 09:12 -33.96561 18.59792 163 ft 8 kts 347°
2026-04-16 09:12 -33.96501 18.59777 163 ft 10 kts 349°
2026-04-16 09:12 -33.96420 18.59757 163 ft 14 kts 349°
2026-04-16 09:13 -33.96313 18.59735 163 ft 16 kts 350°
2026-04-16 09:13 -33.96221 18.59736 161 ft 13 kts 29°
2026-04-16 09:13 -33.96145 18.59818 157 ft 14 kts 44°
2026-04-16 09:13 -33.96081 18.59894 156 ft 15 kts 44°
2026-04-16 09:14 -33.96029 18.59968 153 ft 10 kts 66°
2026-04-16 09:14 -33.96055 18.60032 153 ft 10 kts 165°
2026-04-16 09:14 -33.96083 18.60040 153 ft 0 kts 166°
2026-04-16 09:16 -33.96110 18.60048 154 ft 15 kts 166°
2026-04-16 09:16 -33.96447 18.60154 156 ft 84 kts 165°
2026-04-16 09:16 -33.97213 18.60395 153 ft 142 kts 165°
2026-04-16 09:17 -33.98310 18.60707 302 ft 174 kts 167°
2026-04-16 09:17 -33.99445 18.61084 1088 ft 166 kts 163°
2026-04-16 09:17 -34.00564 18.61511 1719 ft 171 kts 162°
2026-04-16 09:17 -34.01721 18.61945 2209 ft 186 kts 164°
2026-04-16 09:18 -34.03039 18.62417 2488 ft 210 kts 163°
2026-04-16 09:18 -34.04501 18.62966 2689 ft 231 kts 163°
2026-04-16 09:18 -34.06108 18.63577 2911 ft 254 kts 163°
2026-04-16 09:18 -34.07850 18.64197 3458 ft 265 kts 164°
2026-04-16 09:19 -34.09654 18.64829 4046 ft 275 kts 164°
2026-04-16 09:19 -34.11511 18.65476 4621 ft 285 kts 165°
2026-04-16 09:19 -34.13448 18.66151 5224 ft 293 kts 165°
2026-04-16 09:19 -34.15414 18.66835 5968 ft 295 kts 165°
2026-04-16 09:20 -34.17400 18.67526 6691 ft 299 kts 166°
2026-04-16 09:20 -34.19411 18.68227 7390 ft 303 kts 166°
2026-04-16 09:20 -34.21448 18.68936 8109 ft 307 kts 166°
2026-04-16 09:20 -34.23518 18.69658 8760 ft 312 kts 167°
2026-04-16 09:21 -34.25618 18.70390 9302 ft 316 kts 167°
2026-04-16 09:21 -34.27741 18.71130 10083 ft 319 kts 167°
2026-04-16 09:21 -34.29905 18.71932 10509 ft 338 kts 160°
2026-04-16 09:21 -34.31876 18.73658 10707 ft 365 kts 129°
2026-04-16 09:22 -34.33008 18.76411 11252 ft 369 kts 99°
2026-04-16 09:22 -34.33019 18.79469 11929 ft 362 kts 71°
2026-04-16 09:22 -34.32228 18.82346 12682 ft 361 kts 64°
2026-04-16 09:22 -34.31391 18.85193 13425 ft 366 kts 65°
2026-04-16 09:23 -34.30586 18.88145 14146 ft 373 kts 66°
2026-04-16 09:23 -34.29809 18.91168 14844 ft 379 kts 69°
2026-04-16 09:23 -34.29254 18.94316 15589 ft 387 kts 76°
2026-04-16 09:23 -34.28867 18.97558 16328 ft 392 kts 78°
2026-04-16 09:24 -34.28528 19.00852 17044 ft 397 kts 78°
2026-04-16 09:24 -34.28188 19.04187 17769 ft 401 kts 78°
2026-04-16 09:24 -34.27827 19.07553 18443 ft 406 kts 78°
2026-04-16 09:24 -34.27446 19.10948 19046 ft 410 kts 77°
2026-04-16 09:25 -34.27047 19.14375 19650 ft 413 kts 77°
2026-04-16 09:25 -34.26638 19.17816 20271 ft 415 kts 77°
2026-04-16 09:25 -34.26219 19.21287 20842 ft 420 kts 77°
2026-04-16 09:25 -34.25793 19.24800 21404 ft 425 kts 77°
2026-04-16 09:26 -34.25360 19.28361 21978 ft 429 kts 77°
2026-04-16 09:26 -34.24923 19.31945 22556 ft 432 kts 77°
2026-04-16 09:26 -34.24488 19.35515 23088 ft 437 kts 77°
2026-04-16 09:26 -34.24042 19.39168 23607 ft 441 kts 77°
2026-04-16 09:27 -34.23591 19.42856 24065 ft 445 kts 77°
2026-04-16 09:27 -34.23136 19.46568 24522 ft 448 kts 77°
2026-04-16 09:27 -34.22677 19.50308 25006 ft 451 kts 77°
2026-04-16 09:27 -34.22214 19.54064 25457 ft 454 kts 77°
2026-04-16 09:28 -34.21784 19.57865 25867 ft 459 kts 79°
2026-04-16 09:28 -34.21480 19.61724 26288 ft 463 kts 81°
2026-04-16 09:28 -34.21236 19.65624 26707 ft 467 kts 82°
2026-04-16 09:28 -34.21010 19.69507 27126 ft 470 kts 82°
2026-04-16 09:29 -34.20774 19.73450 27625 ft 471 kts 82°
2026-04-16 09:29 -34.20526 19.77398 28222 ft 469 kts 82°
2026-04-16 09:29 -34.20267 19.81317 28803 ft 467 kts 81°
2026-04-16 09:29 -34.20000 19.85221 29388 ft 466 kts 81°
2026-04-16 09:30 -34.19728 19.89126 29934 ft 465 kts 81°
2026-04-16 09:30 -34.19455 19.93014 30390 ft 465 kts 81°
2026-04-16 09:30 -34.19177 19.96933 30633 ft 470 kts 81°
2026-04-16 09:30 -34.18899 20.00864 30873 ft 470 kts 81°
2026-04-16 09:31 -34.18621 20.04797 30991 ft 471 kts 81°
2026-04-16 09:31 -34.18057 20.12713 30998 ft 479 kts 81°
2026-04-16 09:32 -34.17547 20.20873 30990 ft 497 kts 86°
2026-04-16 09:32 -34.17707 20.29297 30997 ft 512 kts 90°
2026-04-16 09:33 -34.18039 20.37951 30983 ft 516 kts 90°
2026-04-16 09:33 -34.18320 20.46626 30977 ft 516 kts 89°
2026-04-16 09:34 -34.18542 20.55279 30982 ft 515 kts 89°
2026-04-16 09:34 -34.18743 20.63908 30973 ft 513 kts 89°
2026-04-16 09:35 -34.18939 20.72504 30982 ft 511 kts 89°
2026-04-16 09:35 -34.19131 20.81065 30976 ft 509 kts 89°
2026-04-16 09:36 -34.19318 20.89598 30983 ft 508 kts 89°
2026-04-16 09:36 -34.19499 20.98120 30975 ft 507 kts 89°
2026-04-16 09:37 -34.19671 21.06566 30980 ft 506 kts 89°
2026-04-16 09:37 -34.19840 21.15077 30969 ft 507 kts 89°
2026-04-16 09:38 -34.20002 21.23583 30988 ft 507 kts 89°
2026-04-16 09:38 -34.20160 21.32115 30990 ft 507 kts 89°
2026-04-16 09:39 -34.20312 21.40642 30984 ft 508 kts 88°
2026-04-16 09:39 -34.20454 21.49130 30986 ft 508 kts 88°
2026-04-16 09:40 -34.20591 21.57671 30986 ft 509 kts 88°
2026-04-16 09:40 -34.20723 21.66230 30996 ft 509 kts 88°
2026-04-16 09:41 -34.20849 21.74790 30968 ft 509 kts 88°
2026-04-16 09:41 -34.20971 21.83347 30971 ft 508 kts 88°
2026-04-16 09:42 -34.21084 21.91825 30980 ft 507 kts 88°
2026-04-16 09:42 -34.21192 22.00391 30985 ft 506 kts 88°
2026-04-16 09:43 -34.21294 22.08851 30997 ft 506 kts 88°
2026-04-16 09:43 -34.21390 22.17355 30980 ft 506 kts 88°
2026-04-16 09:44 -34.21481 22.25862 30985 ft 505 kts 88°
2026-04-16 09:44 -34.21566 22.34356 30985 ft 505 kts 88°
2026-04-16 09:45 -34.21645 22.42839 30989 ft 505 kts 88°
2026-04-16 09:45 -34.21719 22.51325 30977 ft 505 kts 88°
2026-04-16 09:46 -34.21789 22.59767 30989 ft 505 kts 88°
2026-04-16 09:46 -34.21852 22.68259 30989 ft 505 kts 88°
2026-04-16 09:47 -34.21911 22.76707 30972 ft 493 kts 88°
2026-04-16 09:47 -34.21940 22.80780 30954 ft 476 kts 88°
2026-04-16 09:47 -34.21966 22.84743 30985 ft 472 kts 88°
2026-04-16 09:48 -34.22005 22.92820 31005 ft 488 kts 88°
2026-04-16 09:48 -34.22039 23.01155 31002 ft 503 kts 88°
2026-04-16 09:49 -34.22075 23.09578 30767 ft 501 kts 88°
2026-04-16 09:49 -34.22093 23.13765 30406 ft 491 kts 88°
2026-04-16 09:49 -34.22110 23.17860 29954 ft 485 kts 88°
2026-04-16 09:49 -34.22123 23.21926 29435 ft 480 kts 88°
2026-04-16 09:50 -34.22134 23.25943 28943 ft 475 kts 88°
2026-04-16 09:50 -34.22144 23.29908 28451 ft 470 kts 88°
2026-04-16 09:50 -34.22151 23.33837 27961 ft 465 kts 87°
2026-04-16 09:50 -34.22157 23.37730 27474 ft 461 kts 87°
2026-04-16 09:51 -34.22162 23.41585 27000 ft 457 kts 87°
2026-04-16 09:51 -34.22166 23.45356 26525 ft 453 kts 87°
2026-04-16 09:51 -34.22168 23.49147 26068 ft 449 kts 87°
2026-04-16 09:51 -34.22170 23.52907 25612 ft 446 kts 87°
2026-04-16 09:52 -34.22170 23.56636 25157 ft 442 kts 87°
2026-04-16 09:52 -34.22169 23.60342 24702 ft 439 kts 87°
2026-04-16 09:52 -34.22167 23.64024 24250 ft 437 kts 87°
2026-04-16 09:52 -34.22164 23.67685 23778 ft 435 kts 87°
2026-04-16 09:53 -34.22160 23.71331 23269 ft 433 kts 87°
2026-04-16 09:53 -34.22155 23.74957 22743 ft 430 kts 87°
2026-04-16 09:53 -34.22149 23.78555 22286 ft 426 kts 87°
2026-04-16 09:53 -34.22143 23.82116 21828 ft 422 kts 87°
2026-04-16 09:54 -34.22135 23.85653 21374 ft 419 kts 87°
2026-04-16 09:54 -34.22126 23.89107 20933 ft 416 kts 87°
2026-04-16 09:54 -34.22116 23.92587 20495 ft 413 kts 87°
2026-04-16 09:54 -34.22106 23.96049 20057 ft 410 kts 87°
2026-04-16 09:55 -34.22094 23.99490 19619 ft 408 kts 87°
2026-04-16 09:55 -34.22081 24.02906 19183 ft 405 kts 87°
2026-04-16 09:55 -34.22068 24.06305 18739 ft 404 kts 87°
2026-04-16 09:55 -34.22053 24.09695 18292 ft 402 kts 87°
2026-04-16 09:56 -34.22043 24.11924 17978 ft 401 kts 87°
2026-04-16 09:56 -34.22028 24.15286 17516 ft 398 kts 87°
2026-04-16 09:56 -34.22012 24.18617 17058 ft 395 kts 87°
2026-04-16 09:56 -34.21995 24.21920 16623 ft 392 kts 87°
2026-04-16 09:57 -34.21977 24.25200 16196 ft 389 kts 87°
2026-04-16 09:57 -34.21959 24.28453 15775 ft 385 kts 86°
2026-04-16 09:57 -34.21940 24.31677 15359 ft 382 kts 86°
2026-04-16 09:57 -34.21920 24.34880 14939 ft 379 kts 86°
2026-04-16 09:58 -34.21899 24.38055 14532 ft 376 kts 86°
2026-04-16 09:58 -34.21878 24.41210 14115 ft 374 kts 86°
2026-04-16 09:58 -34.21856 24.44334 13697 ft 371 kts 86°
2026-04-16 09:58 -34.21833 24.47440 13238 ft 368 kts 86°
2026-04-16 09:59 -34.21810 24.50479 12810 ft 365 kts 86°
2026-04-16 09:59 -34.21786 24.53542 12391 ft 362 kts 86°
2026-04-16 09:59 -34.21763 24.56567 11988 ft 359 kts 86°
2026-04-16 09:59 -34.21738 24.59574 11575 ft 356 kts 86°
2026-04-16 10:00 -34.21711 24.62550 11171 ft 353 kts 86°
2026-04-16 10:00 -34.21445 24.65471 10779 ft 346 kts 74°
2026-04-16 10:00 -34.20830 24.68259 10560 ft 337 kts 71°
2026-04-16 10:01 -34.19576 24.73516 10273 ft 318 kts 71°
2026-04-16 10:01 -34.18974 24.76056 10139 ft 310 kts 71°
2026-04-16 10:01 -34.18395 24.78523 10012 ft 301 kts 71°
2026-04-16 10:01 -34.17832 24.80944 9741 ft 299 kts 71°
2026-04-16 10:02 -34.17274 24.83351 9444 ft 297 kts 71°
2026-04-16 10:02 -34.16721 24.85744 9143 ft 295 kts 71°
2026-04-16 10:02 -34.16241 24.88160 8763 ft 298 kts 76°
2026-04-16 10:02 -34.15895 24.90624 8447 ft 297 kts 78°
2026-04-16 10:03 -34.15581 24.93080 8153 ft 295 kts 78°
2026-04-16 10:03 -34.15268 24.95524 7861 ft 294 kts 78°
2026-04-16 10:03 -34.14950 24.97951 7564 ft 292 kts 78°
2026-04-16 10:03 -34.14627 25.00365 7275 ft 291 kts 78°
2026-04-16 10:04 -34.14300 25.02769 6971 ft 290 kts 77°
2026-04-16 10:04 -34.13970 25.05164 6680 ft 289 kts 77°
2026-04-16 10:04 -34.13639 25.07550 6388 ft 286 kts 77°
2026-04-16 10:04 -34.13312 25.09894 6083 ft 281 kts 77°
2026-04-16 10:05 -34.12990 25.12197 5788 ft 273 kts 77°
2026-04-16 10:05 -34.12682 25.14400 5508 ft 265 kts 77°
2026-04-16 10:05 -34.12376 25.16573 5257 ft 259 kts 77°
2026-04-16 10:05 -34.12078 25.18692 4982 ft 253 kts 77°
2026-04-16 10:06 -34.11786 25.20756 4746 ft 246 kts 77°
2026-04-16 10:06 -34.11502 25.22763 4492 ft 239 kts 77°
2026-04-16 10:06 -34.11224 25.24721 4268 ft 235 kts 77°
2026-04-16 10:06 -34.10949 25.26659 4042 ft 233 kts 77°
2026-04-16 10:07 -34.10674 25.28584 3811 ft 232 kts 77°
2026-04-16 10:07 -34.10408 25.30461 3696 ft 226 kts 77°
2026-04-16 10:07 -34.10142 25.32331 3602 ft 222 kts 77°
2026-04-16 10:07 -34.09886 25.34129 3503 ft 218 kts 78°
2026-04-16 10:08 -34.09630 25.35919 3419 ft 215 kts 78°
2026-04-16 10:08 -34.09377 25.37686 3328 ft 211 kts 78°
2026-04-16 10:08 -34.09133 25.39397 3242 ft 201 kts 78°
2026-04-16 10:08 -34.08897 25.41036 3068 ft 194 kts 76°
2026-04-16 10:09 -34.08388 25.42495 3010 ft 190 kts 55°
2026-04-16 10:09 -34.07681 25.43854 2993 ft 191 kts 58°
2026-04-16 10:09 -34.07005 25.45222 2997 ft 189 kts 57°
2026-04-16 10:09 -34.06308 25.46591 2789 ft 193 kts 57°
2026-04-16 10:10 -34.05600 25.47962 2538 ft 191 kts 57°
2026-04-16 10:10 -34.04903 25.49311 2303 ft 188 kts 56°
2026-04-16 10:10 -34.04215 25.50643 2046 ft 184 kts 57°
2026-04-16 10:10 -34.03559 25.51912 1817 ft 172 kts 57°
2026-04-16 10:11 -34.02953 25.53085 1582 ft 162 kts 58°
2026-04-16 10:11 -34.02377 25.54203 1399 ft 149 kts 58°
2026-04-16 10:11 -34.01853 25.55217 1208 ft 137 kts 58°
2026-04-16 10:11 -34.01360 25.56164 1043 ft 129 kts 58°
2026-04-16 10:12 -34.00882 25.57075 908 ft 131 kts 57°
2026-04-16 10:12 -34.00386 25.58032 699 ft 137 kts 58°
2026-04-16 10:12 -33.99879 25.59024 459 ft 142 kts 58°
2026-04-16 10:12 -33.99362 25.60031 248 ft 142 kts 58°
2026-04-16 10:13 -33.98874 25.60976 208 ft 116 kts 58°
2026-04-16 10:13 -33.98563 25.61571 205 ft 52 kts 58°
2026-04-16 10:13 -33.98476 25.61736 208 ft 9 kts 58°